MINOTAUR 4 R/B, 45877

Orbit data source: Space-Track

MINOTAUR 4 R/B, 45877 is space debris in LEO originally from a launch on Wed, 15 Jul 2020 UTC launched from the Wallops Island (WLPIS). Debris objects in space refer to the collection of defunct objects orbiting the Earth. Examples of debris include non-operational satellites, rocket bodies, and fragments generated from explosions, collisions, or faulty payload assembly.

Loading next visibility...
Identifier
45877, 2020-046E
Orbit
LEO
Country
Flag of USUS
Related business
Manufacturer
NGIS FSG
Mission
Spacecraft
Bus & Motor
ORION 38, Unknown motor
Mass
~500 kg wet, ~500 kg dry
Launch date (UTC)
2020-07-15 (5 years ago)
Launch vehicle
Unknown
Launch site
Wallops Island (WLPIS)
Object type
Payload
Rocket body
Debris
Shape & HBR
Cyl + 1 Nozzle, 0.7 m
Radar Cross Section
1.381 m², Large (>1 m²)

Expand to show TLE details & history
Last TLE update: 10 hours ago

TLE from 10 hours ago
0 MINOTAUR 4 R/B
1 45877U 20046E   25304.83632853  .00002424  00000-0  18461-3 0  9990
2 45877  53.9775 153.0512 0009820  92.7862 267.4263 15.05762223214504
Epoch: 2025-10-31T20:04Z
TLE epoch observation values (Epoch: 2025-10-31T20:04:18.784Z)
Latitude
0.00003°
Longitude
171.59791°
Altitude
550.456 km
Speed
7.588 km/s
True Right ascension
10h 12m 12s
True Declination
0° 00' 00"
Sunlit
Object was in daylight at epoch
Visualization orbit readout
Latitude
Unknown
Longitude
Unknown
Altitude
Unknown
Speed
Unknown
Apparent Right ascension
Unknown
Apparent Declination
Unknown
Sunlit
N/A
Visualization observer readout
Local Sidereal Time
01:46:03
Azimuth
Unknown
Elevation
Unknown
Doppler factor
Unknown
Orbital elements
Apogee altitude
556.093 km
Perigee altitude
542.488 km
Semi-major axis
6,927.428 km
Eccentricity
0.00098
Inclination
53.9775°
RAAN
153.0512°
Arg. of periapsis
92.7862°
True anomaly
267.31389°
Mean anomaly
267.4263°
Eccentric anomaly
267.37009°
Mean motion
3.76431 °/min
Orbital period
95.64 mins
BSTAR
0.00018461
Loading maneuver chart data...
Computing Atmospheric mass density...

Documentation

Showing up to 5 results
|